[[{"header":{"parameterUnit":"m.s-1","parameterCategory":1,"la1":30.2991,"la2":30.254,"lo1":-89.0895,"lo2":-89.0444,"dy":0.0017,"dx":0.0017,"nx":28,"ny":28,"refTime":"2023-11-06T03:00:00:Z","depth":0,"parameterNumber":2,"parameterNumberName":"U-component_of_WINDS"},"data":[0,0,0,0,0,0,0,0,0,0,0,0,0,0,0,0,0,0,0,0,0,0,0,0,0,0,0,0,0,0,0,0,0,0,0,0,0,0,0,0,0,0,0,0,0,0,0,0,0,0,0,0,0,0,0,0,0,0,-0.1552,-0.1551,0,-0.1461,-0.146,-0.1459,-0.1421,-0.1421,-0.1421,-0.1421,-0.1327,-0.1324,-0.1321,0,0,0,0,0,0,0,0,0,0,0,0,0,-0.1694,-0.1691,-0.1552,-0.1551,-0.155,-0.1461,-0.146,-0.1459,-0.1421,-0.1421,-0.1421,-0.1421,-0.1327,-0.1324,-0.1321,0,0,0,0,0,0,0,0,0,0,0,0,0,-0.162,-0.1691,-0.1553,-0.1521,-0.1517,-0.1461,-0.146,-0.1458,-0.1421,-0.1421,-0.1421,-0.1421,-0.1328,-0.1325,-0.1321,-0.129,0,0,-0.1308,-0.1306,0,0,0,0,0,0,0,0,-0.1625,-0.1615,-0.1526,-0.1523,-0.1518,-0.1453,-0.1475,-0.1402,-0.1421,-0.1457,-0.1421,-0.1422,-0.1368,-0.1361,-0.1343,-0.1286,-0.1281,-0.1308,-0.1305,-0.1304,-0.1302,0,0,0,0,0,0,0,-0.163,-0.1619,-0.1516,-0.1525,-0.152,-0.1511,-0.15,-0.1461,-0.1412,-0.1454,-0.1451,-0.1441,-0.1366,-0.1347,-0.1341,-0.128,-0.1308,-0.1304,-0.1302,-0.13,-0.1193,-0.1193,0,0,0,0,0,0,-0.164,-0.1624,-0.1519,-0.1513,-0.1573,-0.1508,-0.1496,-0.1473,-0.1412,-0.1403,-0.1441,-0.1439,-0.1354,-0.1345,-0.1337,-0.1298,-0.1304,-0.13,-0.1298,-0.1194,-0.1193,-0.1193,0,0,0,0,0,0,-0.1643,-0.1631,-0.1523,-0.1568,-0.1553,-0.1505,-0.1479,-0.1471,-0.1452,-0.1402,-0.1393,-0.143,-0.1354,-0.1343,-0.1302,-0.1294,-0.1298,-0.1294,-0.1194,-0.1194,-0.1193,-0.1218,0,0,0,0,0,0,-0.1648,-0.1633,-0.1621,-0.1568,-0.1551,-0.149,-0.1479,-0.1469,-0.1446,-0.1443,-0.139,-0.1382,-0.1353,-0.1308,-0.1298,-0.1288,-0.1291,-0.1195,-0.1194,-0.1193,-0.1218,-0.1219,-0.1219,0,0,0,0,0,-0.1653,-0.1631,-0.162,-0.1608,-0.1535,-0.1489,-0.148,-0.1447,-0.1445,-0.1433,-0.1401,-0.1383,-0.1297,-0.1305,-0.1293,-0.1281,-0.1195,-0.1194,-0.1193,-0.1218,-0.1218,-0.1219,0,0,0,0,0,0,-0.1684,-0.1623,-0.1611,-0.1571,-0.1536,-0.1483,-0.1466,-0.1449,-0.1413,-0.1412,-0.1373,-0.1362,-0.1325,-0.1299,-0.1309,-0.1249,-0.1244,-0.1241,-0.1267,-0.1267,-0.1268,-0.1275,-0.1288,0,0,0,0,0,-0.1686,-0.1654,-0.1603,-0.1573,-0.1556,-0.1514,-0.1493,-0.1472,-0.1433,-0.1418,-0.1383,-0.1346,-0.131,-0.1287,-0.1252,-0.1214,-0.1202,-0.1201,-0.1201,-0.1202,-0.1199,-0.1178,-0.1177,-0.119,-0.119,-0.119,0,0,-0.169,-0.1653,-0.1636,-0.1578,-0.1548,-0.1516,-0.1502,-0.1468,-0.1444,-0.1412,-0.1372,-0.1345,-0.1301,-0.1263,-0.1244,-0.124,-0.1193,-0.1201,-0.1202,-0.1199,-0.1177,-0.1176,-0.1175,-0.1189,-0.1189,-0.1189,0,0,-0.1681,-0.165,-0.1622,-0.1593,-0.1547,-0.152,-0.1513,-0.1463,-0.1444,-0.1403,-0.1379,-0.135,-0.1289,-0.1259,-0.1236,-0.1217,-0.12,-0.1206,-0.1209,-0.1189,-0.1188,-0.1187,-0.118,-0.1178,-0.1204,-0.1204,-0.1204,0,-0.1692,-0.1643,-0.161,-0.1578,-0.1553,-0.1524,-0.1495,-0.1468,-0.1413,-0.1397,-0.1394,-0.1318,-0.1286,-0.124,-0.1236,-0.1218,-0.1209,-0.1212,-0.1191,-0.1189,-0.1188,-0.1181,-0.1178,-0.1205,-0.1205,-0.1205,-0.1205,0,-0.1659,-0.1625,-0.1608,-0.1556,-0.153,-0.15,-0.1462,-0.1439,-0.142,-0.1393,-0.1352,-0.1313,-0.127,-0.1257,-0.1238,-0.1208,-0.1208,-0.1198,-0.1193,-0.1188,-0.1181,-0.1178,-0.1207,-0.1206,-0.1206,-0.1206,0,0,-0.1666,-0.1597,-0.1591,-0.1568,-0.1517,-0.149,-0.1458,-0.1416,-0.1398,-0.1361,-0.1334,-0.1284,-0.1275,-0.1249,-0.1226,-0.1208,-0.1196,-0.1201,-0.1199,-0.1201,-0.1161,-0.1169,-0.1166,-0.1185,-0.1184,-0.1183,-0.1165,0,-0.165,-0.1593,-0.1562,-0.1518,-0.1487,-0.1459,-0.1431,-0.1397,-0.1371,-0.134,-0.1312,-0.1277,-0.1268,-0.1252,-0.1233,-0.1202,-0.1187,-0.1202,-0.1159,-0.1158,-0.117,-0.1162,-0.117,-0.1154,-0.1162,-0.1162,-0.1161,0,-0.1624,-0.1589,-0.1541,-0.1494,-0.148,-0.1456,-0.1415,-0.1386,-0.1346,-0.1329,-0.13,-0.1278,-0.1244,-0.1242,-0.1194,-0.1205,-0.1186,-0.1168,-0.1166,-0.116,-0.1159,-0.1157,-0.1148,-0.1146,-0.1156,-0.1157,-0.1157,0,-0.1634,-0.1575,-0.1539,-0.152,-0.1463,-0.1447,-0.1423,-0.1384,-0.1361,-0.1325,-0.131,-0.127,-0.1249,-0.1219,-0.1187,-0.1188,-0.1143,-0.1137,-0.1127,-0.1128,-0.1118,-0.1119,-0.1107,-0.1106,-0.1106,-0.1106,-0.1106,0,-0.162,-0.1592,-0.1543,-0.1521,-0.1489,-0.1454,-0.1423,-0.1397,-0.1363,-0.1335,-0.1308,-0.1283,-0.1242,-0.1211,-0.1186,-0.1151,-0.1141,-0.1126,-0.1119,-0.1128,-0.113,-0.1114,-0.1115,-0.1105,-0.1106,-0.1106,-0.1106,0,-0.1626,-0.1592,-0.1551,-0.1501,-0.1488,-0.1467,-0.1424,-0.1402,-0.1375,-0.134,-0.133,-0.1288,-0.125,-0.1216,-0.1166,-0.1149,-0.1113,-0.1105,-0.1127,-0.1123,-0.1114,-0.1116,-0.1091,-0.1086,-0.109,-0.109,-0.109,0,-0.1619,-0.1597,-0.1545,-0.1525,-0.1501,-0.1469,-0.1445,-0.141,-0.1387,-0.1341,-0.1324,-0.1285,-0.1252,-0.1193,-0.1158,-0.112,-0.111,-0.1105,-0.1104,-0.1114,-0.111,-0.1112,-0.111,-0.1105,-0.1105,-0.1105,-0.1105,0,-0.161,-0.1594,-0.1561,-0.1522,-0.1495,-0.1463,-0.143,-0.1414,-0.1373,-0.1348,-0.131,-0.1285,-0.1234,-0.1196,-0.1154,-0.1129,-0.111,-0.1106,-0.1101,-0.111,-0.1123,-0.1116,-0.1128,-0.1106,-0.1106,-0.1106,-0.1106,-0.1106,-0.1609,-0.1588,-0.1548,-0.1513,-0.1484,-0.1454,-0.1431,-0.1401,-0.1369,-0.1325,-0.1307,-0.1268,-0.123,-0.1172,-0.1147,-0.1116,-0.1112,-0.1106,-0.1104,-0.1103,-0.1105,-0.1129,-0.1109,-0.1108,-0.1108,-0.1108,-0.1108,0,-0.1598,-0.1572,-0.1539,-0.1494,-0.1466,-0.1452,-0.1414,-0.1392,-0.1358,-0.1324,-0.1292,-0.1249,-0.1212,-0.1174,-0.1135,-0.1118,-0.1108,-0.1108,-0.1109,-0.1104,-0.111,-0.1118,-0.1117,-0.1117,-0.1117,-0.1117,-0.1117,-0.1117,-0.159,-0.1554,-0.1534,-0.1484,-0.1457,-0.142,-0.14,-0.1372,-0.1344,-0.1297,-0.1266,-0.1242,-0.1206,-0.1164,-0.113,-0.112,-0.1106,-0.1109,-0.1097,-0.1104,-0.1103,-0.1103,-0.111,-0.1106,-0.1106,-0.1092,-0.1092,-0.1092]},{"header":{"parameterUnit":"m.s-1","parameterCategory":1,"la1":30.2991,"la2":30.254,"lo1":-89.0895,"lo2":-89.0444,"dy":0.0017,"dx":0.0017,"nx":28,"ny":28,"refTime":"2023-11-06T03:00:00:Z","depth":0,"parameterNumber":3,"parameterNumberName":"V-component_of_WINDS"},"data":[0,0,0,0,0,0,0,0,0,0,0,0,0,0,0,0,0,0,0,0,0,0,0,0,0,0,0,0,0,0,0,0,0,0,0,0,0,0,0,0,0,0,0,0,0,0,0,0,0,0,0,0,0,0,0,0,0,0,2.7832,2.7832,0,2.7843,2.7844,2.7844,2.7831,2.783,2.783,2.7829,2.784,2.7841,2.7841,0,0,0,0,0,0,0,0,0,0,0,0,0,2.7798,2.7798,2.7832,2.7832,2.7832,2.7843,2.7844,2.7844,2.7831,2.783,2.783,2.7829,2.784,2.784,2.7841,0,0,0,0,0,0,0,0,0,0,0,0,0,2.7811,2.7799,2.7832,2.7827,2.7827,2.7843,2.7844,2.7844,2.7831,2.783,2.783,2.7829,2.7839,2.784,2.7841,2.7863,0,0,2.7845,2.7845,0,0,0,0,0,0,0,0,2.781,2.7812,2.7828,2.7828,2.7827,2.7835,2.7835,2.785,2.7831,2.783,2.7829,2.7829,2.7839,2.784,2.7844,2.7863,2.7864,2.7845,2.7846,2.7846,2.7846,0,0,0,0,0,0,0,2.781,2.7812,2.7836,2.7828,2.7828,2.7824,2.7825,2.7838,2.7838,2.783,2.7829,2.783,2.7838,2.7843,2.7844,2.7864,2.7845,2.7846,2.7846,2.7847,2.7901,2.7902,0,0,0,0,0,0,2.7809,2.7811,2.7836,2.7837,2.7817,2.7825,2.7827,2.7833,2.7838,2.7838,2.7831,2.783,2.7841,2.7842,2.7844,2.7869,2.7846,2.7847,2.7848,2.79,2.7901,2.7902,0,0,0,0,0,0,2.7809,2.7812,2.7836,2.7824,2.7827,2.7827,2.7834,2.7834,2.7838,2.7839,2.7839,2.7835,2.7841,2.7842,2.7858,2.7869,2.7848,2.7848,2.7899,2.7901,2.7902,2.7919,0,0,0,0,0,0,2.7808,2.7811,2.782,2.7824,2.7827,2.785,2.7835,2.7835,2.784,2.7838,2.7843,2.7843,2.784,2.7857,2.7859,2.787,2.7849,2.7898,2.79,2.7901,2.7918,2.7921,2.7924,0,0,0,0,0,2.7807,2.7824,2.782,2.7823,2.7838,2.7851,2.7852,2.7849,2.7841,2.7849,2.785,2.7843,2.7868,2.7858,2.7861,2.7873,2.7898,2.7899,2.7901,2.7916,2.792,2.7923,0,0,0,0,0,0,2.782,2.7824,2.782,2.784,2.7845,2.7849,2.7859,2.7854,2.7861,2.7859,2.7855,2.7856,2.7873,2.7874,2.7864,2.7893,2.7881,2.7884,2.7892,2.7895,2.7898,2.7897,2.785,0,0,0,0,0,2.7826,2.7837,2.7839,2.7856,2.7859,2.7859,2.7864,2.7861,2.7866,2.7868,2.787,2.7875,2.7884,2.789,2.7898,2.7918,2.7918,2.7927,2.793,2.7933,2.7935,2.7945,2.7949,2.7908,2.7908,2.7908,0,0,2.7837,2.7841,2.7847,2.7859,2.7863,2.7874,2.786,2.7872,2.788,2.787,2.7885,2.7886,2.7891,2.7909,2.7917,2.7911,2.7946,2.7935,2.7937,2.7938,2.7947,2.7951,2.7955,2.7909,2.7909,2.7909,0,0,2.7863,2.7867,2.7881,2.7885,2.7891,2.7891,2.7894,2.7899,2.7899,2.7915,2.7907,2.7916,2.7932,2.7936,2.794,2.7967,2.7961,2.797,2.7985,2.7996,2.7999,2.8002,2.8012,2.8015,2.7972,2.7972,2.7972,0,2.7876,2.7892,2.7889,2.7902,2.7907,2.7899,2.7913,2.7917,2.7926,2.7929,2.7922,2.7942,2.7944,2.7963,2.797,2.7973,2.7977,2.7969,2.7999,2.8002,2.8004,2.8013,2.8017,2.7973,2.7973,2.7973,2.7973,0,2.7908,2.7919,2.793,2.7939,2.7945,2.7959,2.7957,2.7964,2.7961,2.7961,2.7977,2.798,2.7988,2.7993,2.7989,2.8011,2.8007,2.8,2.7987,2.8009,2.8018,2.8021,2.7975,2.7974,2.7974,2.7974,0,0,2.7943,2.795,2.7954,2.7958,2.7964,2.7972,2.7985,2.7994,2.8,2.8006,2.8017,2.803,2.8023,2.8028,2.8025,2.8034,2.8056,2.8026,2.8026,2.8031,2.8079,2.8085,2.8089,2.8052,2.8052,2.8053,2.8079,0,2.7968,2.7992,2.7989,2.8011,2.8021,2.8014,2.8025,2.803,2.803,2.8039,2.8039,2.8049,2.8039,2.8042,2.8051,2.8051,2.8065,2.8049,2.8061,2.8061,2.806,2.8093,2.8099,2.8124,2.8082,2.8083,2.8083,0,2.8002,2.801,2.8032,2.8037,2.8041,2.8052,2.806,2.8068,2.8073,2.8073,2.8078,2.8074,2.8086,2.8074,2.8091,2.808,2.8085,2.8086,2.8087,2.8087,2.8074,2.8095,2.8132,2.8135,2.8088,2.8088,2.8088,0,2.8025,2.8041,2.8057,2.806,2.8066,2.8073,2.8076,2.808,2.8086,2.8093,2.8097,2.8105,2.8109,2.8115,2.8113,2.8104,2.8131,2.8118,2.813,2.8131,2.8136,2.8136,2.8174,2.8139,2.8139,2.8139,2.8139,0,2.8054,2.8068,2.8067,2.8077,2.8093,2.809,2.8105,2.8107,2.8111,2.812,2.8114,2.8123,2.812,2.8128,2.8126,2.8141,2.8143,2.8143,2.8142,2.8143,2.8143,2.8146,2.8144,2.814,2.814,2.814,2.814,0,2.8082,2.8082,2.8099,2.8103,2.8105,2.8116,2.8119,2.8128,2.8128,2.8141,2.8143,2.8143,2.8153,2.8152,2.8162,2.8161,2.8179,2.8176,2.8178,2.8177,2.8189,2.8188,2.8231,2.8236,2.8198,2.8198,2.8199,0,2.8101,2.8112,2.8118,2.8124,2.8127,2.8137,2.8143,2.814,2.8147,2.8153,2.8161,2.8171,2.8178,2.8194,2.8195,2.8203,2.8201,2.8215,2.8202,2.8203,2.8201,2.82,2.8201,2.8217,2.8218,2.8218,2.8219,0,2.8134,2.8134,2.8143,2.8152,2.8159,2.8166,2.8172,2.8177,2.8175,2.8182,2.8192,2.8198,2.821,2.8219,2.8227,2.8229,2.8223,2.8223,2.8226,2.8227,2.8228,2.8228,2.8185,2.8222,2.8221,2.8221,2.8221,2.8221,2.8158,2.8168,2.8173,2.8183,2.8188,2.8193,2.8202,2.8203,2.8212,2.8222,2.8219,2.8231,2.8236,2.8245,2.8249,2.8257,2.8252,2.8257,2.8258,2.8259,2.8261,2.8226,2.8259,2.8259,2.8259,2.8258,2.8258,0,2.8191,2.8194,2.8204,2.8213,2.8221,2.8215,2.8222,2.8228,2.8239,2.8244,2.8251,2.8263,2.8272,2.8274,2.8282,2.8289,2.8287,2.8291,2.8291,2.8291,2.8265,2.8261,2.8293,2.8293,2.8293,2.8293,2.8293,2.8293,2.8209,2.8225,2.8225,2.8242,2.8245,2.8257,2.8261,2.8266,2.827,2.8284,2.8292,2.8293,2.8296,2.8305,2.8313,2.8313,2.8316,2.8322,2.8321,2.8297,2.8293,2.829,2.8286,2.8323,2.8323,2.8347,2.8347,2.8347]}]]